Le nostre stazioni meteo in Italia

Pubblicità
Il mio iltempo24.it
Lampedusa, Italia (16490): Temperatura & dewpoint: 30.06.2020 00:00:00 - 06.07.2020 00:00:00 (CEST)Lampedusa, Italia (16490): velocità del vento: 30.06.2020 00:00:00 - 06.07.2020 00:00:00 (CEST)Lampedusa, Italia (16490): direzione del vento: 30.06.2020 00:00:00 - 06.07.2020 00:00:00 (CEST)Lampedusa, Italia (16490): reduced air pressure: 30.06.2020 00:00:00 - 06.07.2020 00:00:00 (CEST)Lampedusa, Italia (16490): visibility: 30.06.2020 00:00:00 - 06.07.2020 00:00:00 (CEST)Lampedusa, Italia (16490): precipitazioni: 30.06.2020 00:00:00 - 06.07.2020 00:00:00 (CEST)
Data & Tempo tt [°C] td [°C] ff [km/h] ff [kn] dd ppp [hPa] vv [km] rr [mm]
06.07.2020 00:00:00 23,0 21,0 29 16 NNO - 10 -
05.07.2020 23:00:00 23,3 20,7 31 17 NNO 1013,6 10 0,0
05.07.2020 22:00:00 24,0 20,0 31 17 NNO - 10 -
05.07.2020 21:00:00 24,0 21,0 31 17 NNO - 10 -
05.07.2020 20:00:00 23,9 20,7 31 17 NNO 1013,1 10 -
05.07.2020 19:00:00 24,0 21,0 29 16 NNO - 10 -
05.07.2020 18:00:00 25,0 21,0 31 17 NNO - 10 -
05.07.2020 17:00:00 24,9 21,0 34 18 NNO 1013,6 10 0,0
05.07.2020 16:00:00 26,0 21,0 35 19 NNO - 10 -
05.07.2020 15:00:00 25,0 21,0 35 19 NNO - 10 -
05.07.2020 14:00:00 26,0 21,2 31 17 NNO 1015,0 10 -
05.07.2020 13:00:00 26,0 21,0 35 19 NNO - 10 -
05.07.2020 12:00:00 25,0 21,0 31 17 NNO - 10 -
05.07.2020 11:00:00 25,0 20,4 31 17 NNO 1015,4 10 0,0
05.07.2020 10:00:00 25,0 20,0 29 16 NNO - 10 -
05.07.2020 09:00:00 25,0 20,0 31 17 N - 10 -
05.07.2020 08:00:00 23,9 20,1 31 17 N 1014,8 10 -
05.07.2020 07:00:00 23,0 20,0 29 16 NNO - 10 -
05.07.2020 06:00:00 23,0 20,0 26 14 NNO - 10 -
05.07.2020 05:00:00 22,9 19,6 28 15 NO 1014,4 10 0,0
05.07.2020 04:00:00 23,0 20,0 34 18 NNO - 10 -
05.07.2020 03:00:00 23,0 19,0 35 19 NNO - 10 -
05.07.2020 02:00:00 23,1 19,2 35 19 NNO 1015,5 10 -
05.07.2020 01:00:00 23,0 19,0 39 21 NNO - 10 -
05.07.2020 00:00:00 23,0 19,0 35 19 NNO - 10 -
04.07.2020 23:00:00 23,4 18,0 31 17 NNO 1015,9 10 0,0
04.07.2020 22:00:00 24,0 18,0 34 18 NNO - 10 -
04.07.2020 21:00:00 24,0 18,0 35 19 NNO - 10 -
04.07.2020 20:00:00 24,1 18,6 35 19 NNO 1015,4 10 -
04.07.2020 19:00:00 25,0 19,0 34 18 NNO - 10 -
04.07.2020 18:00:00 26,0 18,0 37 20 NNO - 10 -
04.07.2020 17:00:00 26,1 18,8 35 19 NNO 1015,4 10 0,0
04.07.2020 16:00:00 26,0 19,0 39 21 NNO - 10 -
04.07.2020 15:00:00 26,0 18,0 41 22 NNO - 10 -
04.07.2020 14:00:00 26,4 18,0 41 22 NNO 1015,9 10 -
04.07.2020 13:00:00 26,0 19,0 37 20 NNO - 10 -
04.07.2020 12:00:00 26,0 19,0 41 22 NNO - 10 -
04.07.2020 11:00:00 26,2 19,5 39 21 NNO 1015,6 10 0,0
04.07.2020 10:00:00 26,0 21,0 39 21 NNO - 10 -
04.07.2020 09:00:00 25,0 21,0 39 21 NNO - 10 -
04.07.2020 08:00:00 25,1 20,6 31 17 NNO 1014,5 10 -
04.07.2020 07:00:00 24,0 21,0 31 17 NNO - 10 -
04.07.2020 06:00:00 24,0 21,0 31 17 NNO - 10 -
04.07.2020 05:00:00 24,2 21,4 35 19 NNO 1012,9 10 0,0
04.07.2020 04:00:00 24,0 22,0 34 18 NNO - 10 -
04.07.2020 03:00:00 24,0 22,0 37 20 NNO - 10 -
04.07.2020 02:00:00 24,5 22,0 34 18 NNO 1012,7 10 -
04.07.2020 01:00:00 24,0 22,0 31 17 N - 10 -
04.07.2020 00:00:00 25,0 22,0 34 18 N - 10 -
03.07.2020 23:00:00 24,3 22,6 11 6 NNO 1013,3 10 0,0
03.07.2020 22:00:00 25,0 23,0 28 15 N - 10 -
03.07.2020 21:00:00 25,0 22,0 29 16 N - 10 -
03.07.2020 20:00:00 25,2 22,4 26 14 NNO 1012,1 10 -
03.07.2020 19:00:00 26,0 22,0 26 14 NNO - 10 -
03.07.2020 18:00:00 27,0 22,0 31 17 NNO - 10 -
03.07.2020 17:00:00 26,9 21,8 31 17 N 1011,7 10 0,0
03.07.2020 16:00:00 27,0 22,0 37 20 NNO - 10 -
03.07.2020 15:00:00 27,0 23,0 37 20 NNO - 10 -
03.07.2020 14:00:00 27,1 22,3 18 10 NNO 1012,8 10 -
03.07.2020 13:00:00 28,0 21,0 28 15 NNO - 10 -
03.07.2020 12:00:00 28,0 22,0 29 16 NNO - 10 -
03.07.2020 11:00:00 27,2 22,1 31 17 NNO 1012,7 10 0,0
03.07.2020 10:00:00 27,0 22,0 29 16 NNO - 10 -
03.07.2020 09:00:00 26,0 22,0 29 16 NNO - 10 -
03.07.2020 08:00:00 25,9 22,6 16 9 ONO 1012,1 10 -
03.07.2020 07:00:00 25,0 23,0 13 7 O - 10 -
03.07.2020 06:00:00 24,0 23,0 15 8 ONO - 10 -
03.07.2020 05:00:00 24,2 22,7 15 8 ONO 1011,1 10 0,0
03.07.2020 04:00:00 24,0 23,0 16 9 NO - 10 -
03.07.2020 03:00:00 25,0 23,0 15 8 ONO - 10 -
03.07.2020 02:00:00 24,6 22,4 16 9 ONO 1011,9 10 -
03.07.2020 01:00:00 25,0 23,0 11 6 ONO - 10 -
03.07.2020 00:00:00 25,0 22,0 8 4 ONO - 10 -
02.07.2020 23:00:00 24,6 22,4 9 5 O 1012,8 10 0,0
02.07.2020 22:00:00 25,0 22,0 8 4 ONO - 10 -
02.07.2020 21:00:00 25,0 23,0 11 6 N - 10 -
02.07.2020 20:00:00 25,2 22,6 11 6 N 1011,9 10 -
02.07.2020 19:00:00 26,0 23,0 11 6 NE - 10 -
02.07.2020 18:00:00 26,0 23,0 11 6 NNE - 10 -
02.07.2020 17:00:00 26,0 23,1 13 7 NE 1012,2 10 0,0
02.07.2020 16:00:00 27,0 24,0 16 9 NNE - 10 -
02.07.2020 15:00:00 28,0 23,0 16 9 N - 10 -
02.07.2020 14:00:00 28,2 22,8 16 9 N 1013,0 10 -
02.07.2020 13:00:00 31,0 19,0 18 10 NO - 10 -
02.07.2020 12:00:00 28,0 22,0 13 7 SSO - 10 -
02.07.2020 11:00:00 27,7 23,1 15 8 SO 1012,9 10 0,0
02.07.2020 10:00:00 27,0 23,0 13 7 SO - 10 -
02.07.2020 09:00:00 26,0 24,0 9 5 SSO - 10 -
02.07.2020 08:00:00 25,6 22,1 5 3 SO 1012,6 10 -
02.07.2020 07:00:00 25,0 22,0 5 3 NNO - 10 -
02.07.2020 06:00:00 24,0 23,0 5 3 NNO - 10 -
02.07.2020 05:00:00 24,4 23,2 8 4 OSO 1011,8 10 0,0
02.07.2020 04:00:00 25,0 23,0 9 5 SO - 10 -
02.07.2020 03:00:00 25,0 23,0 8 4 SE - 10 -
02.07.2020 02:00:00 24,9 23,1 8 4 SSE 1011,7 10 -
02.07.2020 01:00:00 25,0 24,0 9 5 SO - 10 -
02.07.2020 00:00:00 25,0 24,0 11 6 SO - 10 -
01.07.2020 23:00:00 25,3 23,7 9 5 SO 1013,1 10 0,0
01.07.2020 22:00:00 26,0 24,0 9 5 SO - 10 -
01.07.2020 21:00:00 26,0 23,0 9 5 SO - 10 -
01.07.2020 20:00:00 26,6 23,3 9 5 SO 1012,5 10 -
01.07.2020 19:00:00 28,0 22,0 13 7 OSO - 10 -
01.07.2020 18:00:00 29,0 22,0 15 8 OSO - 10 -
01.07.2020 17:00:00 28,6 20,8 13 7 SO 1013,2 10 0,0
01.07.2020 16:00:00 28,0 22,0 11 6 SO - 10 -
01.07.2020 15:00:00 29,0 20,0 9 5 SSO - 10 -
01.07.2020 14:00:00 27,9 21,1 8 4 S 1013,7 10 -
01.07.2020 13:00:00 27,0 22,0 13 7 SSO - 10 -
01.07.2020 12:00:00 27,0 22,0 15 8 SO - 10 -
01.07.2020 11:00:00 26,8 20,8 11 6 SO 1014,6 10 0,0
01.07.2020 10:00:00 27,0 20,0 15 8 O - 10 -
01.07.2020 09:00:00 26,0 21,0 13 7 O - 10 -
01.07.2020 08:00:00 24,9 21,6 15 8 O 1014,0 10 -
01.07.2020 07:00:00 23,0 15,0 8 4 O - 10 -
01.07.2020 06:00:00 23,0 21,0 8 4 O - 10 -
01.07.2020 05:00:00 22,6 21,2 11 6 O 1013,1 10 0,0
01.07.2020 04:00:00 23,0 20,0 13 7 O - 10 -
01.07.2020 03:00:00 23,0 21,0 11 6 O - 10 -
01.07.2020 02:00:00 22,5 19,7 5 3 ONO 1013,9 - -
01.07.2020 01:00:00 23,0 22,0 8 4 O - 10 -
01.07.2020 00:00:00 22,0 20,0 11 6 O - 10 -
30.06.2020 23:00:00 23,2 21,0 5 3 SO 1014,4 10 0,0
30.06.2020 22:00:00 24,0 21,0 4 2 N - 10 -
30.06.2020 21:00:00 24,0 22,0 2 1 - - 10 -
30.06.2020 20:00:00 26,0 21,3 5 3 ONO 1013,8 10 -
30.06.2020 19:00:00 26,0 21,0 11 6 N - 10 -
30.06.2020 18:00:00 27,0 21,0 13 7 NNO - 10 -
30.06.2020 17:00:00 27,6 19,8 11 6 NNO 1014,0 10 0,0
30.06.2020 16:00:00 28,0 20,0 11 6 NO - 10 -
30.06.2020 15:00:00 28,0 20,0 13 7 NO - 10 -
30.06.2020 14:00:00 27,7 18,3 13 7 NNO 1014,8 10 -
30.06.2020 13:00:00 27,0 20,0 15 8 NNO - 10 -
30.06.2020 12:00:00 26,0 22,0 15 8 N - 10 -
30.06.2020 11:00:00 25,7 21,3 15 8 N 1014,7 10 0,0
30.06.2020 10:00:00 26,0 22,0 13 7 NNO - 10 -
30.06.2020 09:00:00 25,0 22,0 16 9 NO - 10 -
30.06.2020 08:00:00 23,9 21,8 15 8 NNO 1014,5 10 -
30.06.2020 07:00:00 23,0 21,0 15 8 NO - 10 -
30.06.2020 06:00:00 23,0 21,0 15 8 ONO - 10 -
30.06.2020 05:00:00 22,5 21,1 16 9 O 1014,0 10 0,0
30.06.2020 04:00:00 23,0 22,0 21 11 O - 10 -
30.06.2020 03:00:00 22,0 21,0 11 6 O - 10 -
30.06.2020 02:00:00 22,0 20,8 8 4 ONO 1014,2 10 -
30.06.2020 01:00:00 23,0 21,0 5 3 NO - 10 -
30.06.2020 00:00:00 23,0 22,0 4 2 NNO - 10 -

tt = Temperatura
td = dewpoint
ff = velocità del vento
dd = direzione del vento
ppp = reduced air pressure
vv = visibility
rr = precipitazioni

Stazioni seguenti

WeatherPro
AMSI
MeteoEarth